JZA8166 CYYJ-CYVR

Flight info

Callsign JZA8166
Flight time N/A
Altitude 5000
Route OMVEX ILAND9
Aircraft DH8A/M-VGDW/C

Departure

Time 2026-04-30 02:46
Airport Victoria International Airport (CYYJ)

Arrival

Time N/A
Airport Vancouver International Airport (CYVR)
Time Latitude Longitude Altitude Speed Heading
2026-04-30 02:23 48.64185 -123.42957 69 ft 0 kts 319°
2026-04-30 02:39 48.64185 -123.42958 69 ft 0 kts 319°
2026-04-30 02:42 48.64199 -123.42961 69 ft 4 kts 34°
2026-04-30 02:42 48.64246 -123.42972 69 ft 8 kts 277°
2026-04-30 02:43 48.64252 -123.43095 69 ft 8 kts 262°
2026-04-30 02:43 48.64229 -123.43190 69 ft 8 kts 247°
2026-04-30 02:43 48.64217 -123.43226 69 ft 0 kts 242°
2026-04-30 02:44 48.64217 -123.43227 69 ft 0 kts 242°
2026-04-30 02:45 48.64217 -123.43228 69 ft 2 kts 242°
2026-04-30 02:45 48.64207 -123.43334 69 ft 10 kts 277°
2026-04-30 02:45 48.64238 -123.43468 69 ft 18 kts 323°
2026-04-30 02:45 48.64380 -123.43330 69 ft 59 kts 53°
2026-04-30 02:46 48.64987 -123.42417 114 ft 161 kts 51°
2026-04-30 02:46 48.65793 -123.40970 507 ft 192 kts 53°
2026-04-30 02:46 48.66752 -123.39395 1003 ft 212 kts 45°
2026-04-30 02:46 48.67849 -123.37839 1462 ft 225 kts 43°
2026-04-30 02:47 48.69044 -123.36199 1927 ft 236 kts 42°
2026-04-30 02:47 48.70281 -123.34500 2384 ft 244 kts 42°
2026-04-30 02:47 48.71554 -123.32750 2834 ft 248 kts 42°
2026-04-30 02:47 48.72830 -123.30968 3287 ft 250 kts 43°
2026-04-30 02:48 48.74102 -123.29146 3739 ft 252 kts 43°
2026-04-30 02:48 48.75379 -123.27298 4191 ft 255 kts 43°
2026-04-30 02:48 48.76668 -123.25428 4643 ft 257 kts 43°
2026-04-30 02:48 48.77529 -123.24178 4869 ft 262 kts 43°